Regional Weather Roundup
Issued by NWS

Home | Current Version | Previous Version | Graphics & Text | Print | Product List | Glossary On
Versions: 1 2 3 4 5 6 7 8 9 10 11 12 13 14 15 16 17 18 19 20 21 22 23 24 25 26 27 28 29 30 31 32 33 34 35 36 37 38 39 40 41 42 43 44 45 46 47 48 49 50
000
ASUS45 KSLC 261310
RWRUT

UTAH REGIONAL WEATHER ROUNDUP
NATIONAL WEATHER SERVICE SALT LAKE CITY UT
700 AM MDT SAT JUL 26 2014

UTZ001>011-023>025-261400-

NORTHERN UTAH

CITY           SKY/WX    TMP DP  RH WIND       PRES   REMARKS
HILL AFB       CLEAR     67  38  34 E15       30.12R
LOGAN          CLEAR     51  43  74 W5        30.15R
OGDEN          CLEAR     65  40  39 S6        30.10R
PROVO AIRPORT  PTCLDY    66  52  59 SE3       30.12S
SALT LAKE CITY MOCLDY    68  51  54 CALM      30.09R
VERNAL         CLEAR     65  46  50 W5        30.15R
WENDOVER       PTCLDY    68  32  26 N3        30.11R
HEBER CITY     CLEAR     55  46  71 CALM      30.19S
WEST JORDAN    CLEAR     70  54  56 CALM      30.12R

$$

UTZ012>022-026-027-261400-

SOUTHERN UTAH

CITY           SKY/WX    TMP DP  RH WIND       PRES   REMARKS
BRYCE CANYON   PTCLDY    49  44  83 W6        30.37R
CEDAR CITY     MOCLDY    67  49  52 SE5       30.21R
MILFORD        MOCLDY    70  48  45 S8        30.15R
MOAB/CYNLANDS  CLEAR     70  45  40 CALM      30.09R
PRICE          PTCLDY    66  45  46 VRB3      30.20R
ST GEORGE      SUNNY     79  50  36 SE5       30.04R
KANAB            N/A     66  50  55 CALM      30.21R

$$

REGIONAL REPORTS     COLORADO/ARIZONA

CITY           SKY/WX    TMP DP  RH WIND       PRES   REMARKS
CRAIG, CO      CLOUDY    55  54  96 SW5       30.25R
GRAND JUNCTION CLEAR     64  53  67 E6        30.15R
RIFLE          MOCLDY    64  49  57 S5        30.21R
MONTROSE       CLEAR     65  50  58 S5        30.24R
CORTEZ         CLEAR     60  45  57 E6        30.24R
PAGE, AZ       PTCLDY    77  52  41 S3        30.12R
GRAND CANYON   CLOUDY    63  48  58 W7        30.32R
KINGMAN        MOCLDY    74  59  59 SE12      30.09R
FLAGSTAFF      CLOUDY    58  46  64 CALM      30.35R

$$

REGIONAL REPORTS    NEVADA/IDAHO/WYOMING

CITY           SKY/WX    TMP DP  RH WIND       PRES   REMARKS
LAS VEGAS, NV  MOCLDY    87  58  37 S14       29.89R
ELY            CLEAR     50  35  56 S6        30.25R
ELKO           PTCLDY    51  30  44 E3        30.19R
POCATELLO, ID  CLEAR     57  27  31 SW9       30.19R
BURLEY         CLEAR     49  37  63 SE3       30.16R HAZE
EVANSTON, WY   PTCLDY    58  32  37 SE5       30.30R
ROCK SPRINGS   CLEAR     58  24  27 SW6       30.26R

$$



USA.gov is the U.S. government's official web portal to all federal, state and local government web resources and services.